Location: Prague
(50.0830°N, 14.4670°E)
Time: 22:10:42
(UTC+01:00)

AO-73 - Visible Passes

Search period start: 01 December 2021 00:00
Search period end: 11 December 2021 00:00
Orbit: 581 x 660 km, 97.6° (Epoch: 01 December)

Date Brightness Start Highest point End Pass type
(mag) Time Alt. Az. Time Alt. Az. Time Alt. Az.
01 Dec ? 03:24:17 10° NE 03:24:55 12° ENE 03:24:55 12° ENE visible
01 Dec ? 04:59:13 10° N 05:02:05 38° N 05:02:05 38° N visible
01 Dec ? 06:37:32 10° NW 06:39:05 12° NW 06:39:15 12° WNW visible
02 Dec ? 03:41:15 10° NE 03:42:25 15° NE 03:42:25 15° NE visible
02 Dec ? 05:16:53 10° N 05:19:35 32° NNW 05:19:35 32° NNW visible
03 Dec ? 03:58:28 10° NNE 03:59:57 18° NE 03:59:57 18° NE visible
03 Dec ? 05:34:38 10° N 05:37:06 26° NNW 05:37:06 26° NNW visible
03 Dec ? 16:34:23 10° SSW 16:37:55 25° W 16:41:32 10° NW visible
04 Dec ? 04:15:50 10° NNE 04:17:28 21° NNE 04:17:28 21° NNE visible
04 Dec ? 05:52:28 10° N 05:54:38 21° NNW 05:54:38 21° NNW visible
04 Dec ? 16:52:47 10° SW 16:55:40 17° W 16:58:35 10° NW visible
05 Dec ? 04:33:18 10° NNE 04:35:01 23° NNE 04:35:01 23° NNE visible
05 Dec ? 06:10:27 10° NNW 06:12:11 16° NW 06:12:11 16° NW visible
05 Dec ? 17:11:50 10° WSW 17:13:27 12° W 17:15:05 10° WNW visible
06 Dec ? 04:50:51 10° NNE 04:52:34 23° N 04:52:34 23° N visible
06 Dec ? 06:28:42 10° NNW 06:29:44 12° NW 06:29:44 12° NW visible
07 Dec ? 05:08:29 10° N 05:10:07 22° N 05:10:07 22° N visible
08 Dec ? 03:50:15 10° NE 03:50:32 11° NE 03:50:32 11° NE visible
08 Dec ? 05:26:12 10° N 05:27:42 19° N 05:27:42 19° N visible
09 Dec ? 04:07:33 10° NNE 04:08:06 13° NNE 04:08:06 13° NNE visible
09 Dec ? 05:43:59 10° N 05:45:16 17° NNW 05:45:16 17° NNW visible
09 Dec ? 16:43:54 10° SW 16:47:11 21° W 16:50:33 10° NW visible
10 Dec ? 04:24:58 10° NNE 04:25:41 14° NNE 04:25:41 14° NNE visible
10 Dec ? 06:01:53 10° NNW 06:02:51 14° NNW 06:02:51 14° NNW visible
10 Dec ? 17:02:33 10° WSW 17:04:57 14° W 17:07:23 10° NW visible
